Date String (YYYY-MM-DD hh:mm:ss) UTC,Instrument flags,Ambient pressure (hPa),Sample flow (lpm),Bypass flow (lpm),Sample temperature (°C),Ambient temperature (°C),ASC tube jacket temperature (°C),LED temperature (°C),Box temperature (°C),Sample RH (%),Span deviation,Mass concentration (μg/m³),Mass concentration (μg/m³),Mass concentration (μg/m³)
DateTimeUTC,F1_M11,P_M11,Q1_M11,Q2_M11,T1_M11,T2_M11,T3_M11,T4_M11,T5_M11,U1_M11,ZSPAN_M11,X0_M11,X2_M11,X1_M11
2022-05-07 12:00:00,,0817.9,5.00,0.00,29.4,28.4,00.0,38.3,31.1,09.9,0000.0,0009.84,0003.84,0001.99
2022-05-07 12:01:00,,0817.8,5.00,0.00,29.3,28.4,00.0,38.3,31.1,10.5,0000.0,0009.81,0003.76,0001.98
2022-05-07 12:02:00,,0817.9,5.00,0.00,29.3,28.3,00.0,38.3,31.1,10.0,0000.0,0009.67,0003.76,0001.98
2022-05-07 12:03:00,,0817.8,4.99,0.00,29.3,28.3,00.0,38.3,31.1,09.9,0000.0,0009.59,0003.76,0001.97
2022-05-07 12:04:00,,0817.8,5.00,0.00,29.3,28.3,00.0,38.3,31.1,09.8,0000.0,0009.71,0003.73,0001.97
2022-05-07 12:05:00,,0817.9,5.00,0.00,29.3,28.4,00.0,38.3,31.1,09.9,0000.0,0009.53,0003.66,0001.96
2022-05-07 12:06:00,,0817.8,5.00,0.00,29.3,28.4,00.0,38.3,31.1,10.0,0000.0,0009.58,0003.69,0001.96
2022-05-07 12:07:00,,0817.9,5.00,0.00,29.3,28.4,00.0,38.3,31.1,10.0,0000.0,0009.59,0003.70,0001.96
2022-05-07 12:08:00,,0817.8,5.01,0.00,29.3,28.4,00.0,38.3,31.1,10.0,0000.0,0009.30,0003.65,0001.96
2022-05-07 12:09:00,,0817.8,4.99,0.00,29.3,28.4,00.0,38.3,31.1,10.1,0000.0,0009.00,0003.62,0001.95
2022-05-07 12:10:00,,0817.7,5.00,0.00,29.3,28.4,00.0,38.3,31.1,10.0,0000.0,0009.37,0003.57,0001.93
2022-05-07 12:11:00,,0817.7,5.00,0.00,29.3,28.4,00.0,38.3,31.1,10.0,0000.0,0009.28,0003.59,0001.93
2022-05-07 12:12:00,,0817.8,5.00,0.00,29.3,28.4,00.0,38.3,31.1,10.0,0000.0,0008.84,0003.60,0001.94
2022-05-07 12:13:00,,0817.9,5.00,0.00,29.3,28.4,00.0,38.3,31.1,10.1,0000.0,0009.02,0003.57,0001.93
2022-05-07 12:14:00,,0817.9,5.00,0.00,29.3,28.4,00.0,38.3,31.1,10.1,0000.0,0009.67,0003.54,0001.93
2022-05-07 12:15:00,,0818.0,5.00,0.00,29.3,28.4,00.0,38.3,31.1,10.5,0000.0,0010.16,0003.57,0001.94
2022-05-07 12:16:00,,0818.0,5.01,0.00,29.3,28.4,00.0,38.3,31.1,10.7,0000.0,0009.92,0003.56,0001.92
2022-05-07 12:17:00,,0818.0,5.00,0.00,29.3,28.4,00.0,38.3,31.0,10.5,0000.0,0009.90,0003.51,0001.92
2022-05-07 12:18:00,,0817.8,5.00,0.00,29.3,28.4,00.0,38.3,31.0,10.5,0000.0,0009.97,0003.51,0001.93
2022-05-07 12:19:00,,0817.7,4.98,0.00,29.3,28.4,00.0,38.3,31.0,10.7,0000.0,0009.97,0003.51,0001.96
2022-05-07 12:20:00,,0817.7,5.00,0.00,29.3,28.4,00.0,38.3,31.1,10.5,0000.0,0010.05,0003.53,0001.97
2022-05-07 12:21:00,,0817.6,5.00,0.00,29.3,28.4,00.0,38.3,31.1,10.5,0000.0,0009.62,0003.55,0001.99
2022-05-07 12:22:00,,0817.7,5.00,0.00,29.3,28.4,00.0,38.3,31.0,10.8,0000.0,0009.41,0003.53,0002.00
2022-05-07 12:23:00,,0817.7,5.00,0.00,29.3,28.4,00.0,38.3,31.1,11.1,0000.0,0009.43,0003.56,0002.03
2022-05-07 12:24:00,,0817.8,5.00,0.00,29.3,28.4,00.0,38.3,31.1,10.7,0000.0,0009.28,0003.59,0002.04
2022-05-07 12:25:00,,0817.8,4.99,0.00,29.3,28.5,00.0,38.3,31.1,10.2,0000.0,0008.67,0003.59,0002.04
2022-05-07 12:26:00,,0817.8,4.99,0.00,29.4,28.4,00.0,38.3,31.1,10.0,0000.0,0008.24,0003.59,0002.05
2022-05-07 12:27:00,,0817.8,5.01,0.00,29.3,28.5,00.0,38.3,31.1,10.0,0000.0,0009.34,0003.63,0002.09
2022-05-07 12:28:00,,0817.7,5.00,0.00,29.4,28.5,00.0,38.3,31.1,10.1,0000.0,0009.85,0003.66,0002.11
2022-05-07 12:29:00,,0817.7,5.00,0.00,29.4,28.5,00.0,38.3,31.1,10.1,0000.0,0009.98,0003.66,0002.13
2022-05-07 12:30:00,,0817.7,5.00,0.00,29.4,28.4,00.0,38.3,31.1,10.0,0000.0,0010.52,0003.66,0002.13
2022-05-07 12:31:00,,0817.7,5.00,0.00,29.4,28.5,00.0,38.3,31.1,10.0,0000.0,0010.56,0003.65,0002.15
2022-05-07 12:32:00,,0817.7,5.00,0.00,29.4,28.5,00.0,38.3,31.1,10.0,0000.0,0010.67,0003.68,0002.16
2022-05-07 12:33:00,,0817.6,4.99,0.00,29.4,28.5,00.0,38.3,31.1,10.1,0000.0,0010.73,0003.69,0002.19
2022-05-07 12:34:00,,0817.7,5.00,0.00,29.4,28.5,00.0,38.3,31.1,10.2,0000.0,0010.85,0003.67,0002.20
2022-05-07 12:35:00,,0817.7,5.01,0.00,29.4,28.5,00.0,38.3,31.1,10.2,0000.0,0011.06,0003.69,0002.22
2022-05-07 12:36:00,,0817.7,5.01,0.00,29.4,28.5,00.0,38.3,31.2,10.3,0000.0,0011.84,0003.76,0002.26
2022-05-07 12:37:00,,0817.7,4.99,0.00,29.4,28.5,00.0,38.3,31.1,11.3,0000.0,0012.12,0003.83,0002.28
2022-05-07 12:38:00,,0817.7,5.00,0.00,29.4,28.5,00.0,38.3,31.2,11.0,0000.0,0011.04,0003.78,0002.27
2022-05-07 12:39:00,,0817.6,5.01,0.00,29.4,28.5,00.0,38.4,31.2,10.3,0000.0,0010.44,0003.73,0002.26
2022-05-07 12:40:00,,0817.6,5.00,0.00,29.4,28.5,00.0,38.4,31.2,10.2,0000.0,0010.31,0003.75,0002.26
2022-05-07 12:41:00,,0817.7,5.00,0.00,29.4,28.5,00.0,38.4,31.2,10.1,0000.0,0009.87,0003.81,0002.26
2022-05-07 12:42:00,,0817.7,4.99,0.00,29.4,28.5,00.0,38.4,31.2,10.1,0000.0,0010.24,0003.87,0002.25
2022-05-07 12:43:00,,0817.7,5.00,0.00,29.4,28.5,00.0,38.4,31.2,10.1,0000.0,0010.22,0003.87,0002.25
2022-05-07 12:44:00,,0817.6,5.00,0.00,29.4,28.5,00.0,38.4,31.2,10.0,0000.0,0010.17,0003.86,0002.23
2022-05-07 12:45:00,,0817.5,5.00,0.00,29.4,28.5,00.0,38.4,31.2,10.2,0000.0,0010.07,0003.86,0002.21
2022-05-07 12:46:00,,0817.5,5.00,0.00,29.4,28.5,00.0,38.4,31.2,10.0,0000.0,0009.94,0003.86,0002.20
2022-05-07 12:47:00,,0817.4,5.00,0.00,29.4,28.6,00.0,38.4,31.2,10.3,0000.0,0009.13,0003.82,0002.18
2022-05-07 12:48:00,,0817.5,5.01,0.00,29.4,28.6,00.0,38.4,31.2,10.3,0000.0,0008.66,0003.74,0002.17
2022-05-07 12:49:00,,0817.5,5.00,0.00,29.4,28.6,00.0,38.4,31.2,10.4,0000.0,0008.67,0003.77,0002.16
2022-05-07 12:50:00,,0817.6,5.00,0.00,29.4,28.5,00.0,38.4,31.2,11.1,0000.0,0008.58,0003.78,0002.17
2022-05-07 12:51:00,,0817.5,5.00,0.00,29.4,28.6,00.0,38.4,31.2,10.6,0000.0,0008.50,0003.75,0002.16
2022-05-07 12:52:00,,0817.5,5.01,0.00,29.4,28.5,00.0,38.4,31.2,10.7,0000.0,0008.50,0003.74,0002.13
2022-05-07 12:53:00,,0817.5,5.00,0.00,29.4,28.5,00.0,38.4,31.2,10.9,0000.0,0008.26,0003.66,0002.13
2022-05-07 12:54:00,,0817.4,5.00,0.00,29.4,28.5,00.0,38.4,31.2,11.0,0000.0,0008.37,0003.62,0002.13
2022-05-07 12:55:00,,0817.4,5.00,0.00,29.4,28.5,00.0,38.4,31.2,10.8,0000.0,0008.67,0003.61,0002.12
2022-05-07 12:56:00,,0817.5,5.00,0.00,29.4,28.5,00.0,38.4,31.2,10.9,0000.0,0009.40,0003.62,0002.09
2022-05-07 12:57:00,,0817.5,5.00,0.00,29.4,28.5,00.0,38.4,31.2,10.5,0000.0,0009.59,0003.62,0002.10
2022-05-07 12:58:00,,0817.5,5.00,0.00,29.4,28.6,00.0,38.4,31.2,10.3,0000.0,0009.65,0003.65,0002.11
2022-05-07 12:59:00,,0817.5,5.00,0.00,29.4,28.6,00.0,38.4,31.2,10.3,0000.0,0009.78,0003.70,0002.12
